AUA66R LOWW-EPWA

Flight info

Callsign AUA66R
Flight time 0h 57m
Altitude 35000
Route LEDVA4D/34 LEDVA DCT NETIR DCT LIGDI DCT KURON T709 KOTEK M866 LOGDA
Aircraft E195/M-SDE3GILORVW/S

Departure

Time 2026-04-26 18:33
Airport Vienna International Airport (LOWW)

Arrival

Time 2026-04-26 19:30
Airport Warsaw Chopin Airport (EPWA)
Time Latitude Longitude Altitude Speed Heading
2026-04-26 17:54 48.11690 16.56844 607 ft 0 kts 25°
2026-04-26 18:09 48.11689 16.56844 581 ft 0 kts 25°
2026-04-26 18:15 48.11688 16.56843 581 ft 2 kts 25°
2026-04-26 18:15 48.11666 16.56826 625 ft 4 kts 31°
2026-04-26 18:15 48.11644 16.56803 621 ft 4 kts 46°
2026-04-26 18:15 48.11630 16.56773 625 ft 4 kts 89°
2026-04-26 18:16 48.11631 16.56758 621 ft 1 kts 116°
2026-04-26 18:19 48.11631 16.56759 622 ft 1 kts 116°
2026-04-26 18:19 48.11621 16.56791 625 ft 5 kts 116°
2026-04-26 18:20 48.11599 16.56856 616 ft 9 kts 116°
2026-04-26 18:20 48.11568 16.56953 615 ft 12 kts 116°
2026-04-26 18:20 48.11526 16.57080 616 ft 15 kts 117°
2026-04-26 18:20 48.11511 16.57127 608 ft 16 kts 116°
2026-04-26 18:21 48.11425 16.57371 608 ft 13 kts 141°
2026-04-26 18:21 48.11351 16.57357 608 ft 0 kts 206°
2026-04-26 18:21 48.11349 16.57357 608 ft 0 kts 206°
2026-04-26 18:23 48.11349 16.57356 608 ft 0 kts 206°
2026-04-26 18:23 48.11334 16.57345 608 ft 6 kts 207°
2026-04-26 18:23 48.11268 16.57298 616 ft 13 kts 205°
2026-04-26 18:23 48.11181 16.57360 612 ft 20 kts 117°
2026-04-26 18:24 48.11121 16.57546 613 ft 22 kts 116°
2026-04-26 18:24 48.11052 16.57752 608 ft 16 kts 123°
2026-04-26 18:24 48.10930 16.57842 610 ft 24 kts 165°
2026-04-26 18:24 48.10742 16.57922 611 ft 29 kts 164°
2026-04-26 18:25 48.10563 16.57996 619 ft 24 kts 165°
2026-04-26 18:25 48.10395 16.58068 608 ft 26 kts 164°
2026-04-26 18:25 48.10210 16.58147 615 ft 29 kts 164°
2026-04-26 18:25 48.10011 16.58231 616 ft 31 kts 164°
2026-04-26 18:26 48.09807 16.58317 615 ft 30 kts 163°
2026-04-26 18:26 48.09605 16.58404 615 ft 32 kts 163°
2026-04-26 18:26 48.09410 16.58485 618 ft 29 kts 164°
2026-04-26 18:26 48.09234 16.58560 611 ft 27 kts 165°
2026-04-26 18:27 48.09069 16.58630 617 ft 24 kts 163°
2026-04-26 18:27 48.08900 16.58702 615 ft 26 kts 163°
2026-04-26 18:27 48.08794 16.58858 623 ft 21 kts 103°
2026-04-26 18:27 48.08793 16.58943 608 ft 0 kts 75°
2026-04-26 18:30 48.08795 16.58949 617 ft 3 kts 75°
2026-04-26 18:30 48.08800 16.58974 620 ft 5 kts 68°
2026-04-26 18:30 48.08825 16.59035 619 ft 10 kts 49°
2026-04-26 18:31 48.08910 16.59101 608 ft 16 kts
2026-04-26 18:31 48.08971 16.59089 612 ft 0 kts 345°
2026-04-26 18:31 48.08973 16.59088 611 ft 0 kts 345°
2026-04-26 18:32 48.08974 16.59088 611 ft 2 kts 345°
2026-04-26 18:32 48.08994 16.59080 616 ft 2 kts 344°
2026-04-26 18:32 48.09074 16.59046 613 ft 41 kts 345°
2026-04-26 18:33 48.09624 16.58813 616 ft 123 kts 345°
2026-04-26 18:33 48.10612 16.58391 1031 ft 162 kts 346°
2026-04-26 18:33 48.11702 16.57949 1720 ft 168 kts 347°
2026-04-26 18:33 48.12888 16.57429 2779 ft 180 kts 345°
2026-04-26 18:34 48.14145 16.56883 3992 ft 198 kts 346°
2026-04-26 18:34 48.15573 16.56536 4532 ft 228 kts
2026-04-26 18:34 48.17032 16.57359 4400 ft 229 kts 37°
2026-04-26 18:34 48.17952 16.59289 4280 ft 229 kts 58°
2026-04-26 18:35 48.18895 16.61172 4226 ft 224 kts 43°
2026-04-26 18:35 48.20035 16.62765 4249 ft 224 kts 37°
2026-04-26 18:35 48.21316 16.64099 4278 ft 225 kts 30°
2026-04-26 18:35 48.22640 16.65339 4313 ft 224 kts 29°
2026-04-26 18:36 48.23958 16.66518 4344 ft 223 kts 26°
2026-04-26 18:36 48.25342 16.67583 4374 ft 224 kts 24°
2026-04-26 18:36 48.26793 16.68675 4544 ft 240 kts 24°
2026-04-26 18:36 48.28328 16.69676 4819 ft 242 kts 11°
2026-04-26 18:37 48.29988 16.69982 5220 ft 241 kts
2026-04-26 18:37 48.31656 16.70162 5770 ft 250 kts
2026-04-26 18:37 48.33414 16.70340 6335 ft 255 kts
2026-04-26 18:37 48.35192 16.70649 6905 ft 259 kts
2026-04-26 18:38 48.36964 16.71018 7522 ft 262 kts
2026-04-26 18:38 48.38775 16.71407 8152 ft 264 kts
2026-04-26 18:38 48.40606 16.71808 8788 ft 267 kts
2026-04-26 18:38 48.42454 16.72217 9441 ft 269 kts
2026-04-26 18:39 48.44317 16.72625 10110 ft 272 kts
2026-04-26 18:39 48.46201 16.73040 10713 ft 275 kts
2026-04-26 18:39 48.48106 16.73460 11321 ft 278 kts
2026-04-26 18:39 48.50029 16.73881 11940 ft 281 kts
2026-04-26 18:40 48.52006 16.74314 12597 ft 293 kts
2026-04-26 18:40 48.54061 16.74768 13255 ft 304 kts
2026-04-26 18:40 48.56193 16.75236 13933 ft 315 kts
2026-04-26 18:40 48.58347 16.75710 14531 ft 318 kts
2026-04-26 18:41 48.60540 16.76198 15128 ft 319 kts
2026-04-26 18:41 48.62747 16.76679 15744 ft 322 kts
2026-04-26 18:41 48.64977 16.77172 16367 ft 325 kts
2026-04-26 18:41 48.67227 16.77667 17012 ft 328 kts
2026-04-26 18:42 48.69496 16.78173 17678 ft 331 kts
2026-04-26 18:42 48.71770 16.78869 18380 ft 340 kts 16°
2026-04-26 18:42 48.73805 16.80807 19016 ft 356 kts 40°
2026-04-26 18:42 48.75389 16.83759 19636 ft 364 kts 48°
2026-04-26 18:43 48.76973 16.86779 20266 ft 368 kts 46°
2026-04-26 18:43 48.78567 16.89848 20893 ft 373 kts 47°
2026-04-26 18:43 48.80158 16.92910 21518 ft 377 kts 47°
2026-04-26 18:43 48.81783 16.96051 22164 ft 380 kts 47°
2026-04-26 18:44 48.83422 16.99213 22822 ft 383 kts 47°
2026-04-26 18:44 48.85092 17.02439 23115 ft 394 kts 47°
2026-04-26 18:44 48.86778 17.05713 23197 ft 392 kts 47°
2026-04-26 18:44 48.88455 17.08957 23236 ft 390 kts 47°
2026-04-26 18:45 48.90124 17.12197 23507 ft 389 kts 47°
2026-04-26 18:45 48.91801 17.15450 24042 ft 394 kts 47°
2026-04-26 18:45 48.93496 17.18754 24514 ft 399 kts 46°
2026-04-26 18:45 48.95215 17.22101 25000 ft 404 kts 47°
2026-04-26 18:46 48.96948 17.25482 25481 ft 407 kts 47°
2026-04-26 18:46 48.98666 17.28841 25967 ft 408 kts 47°
2026-04-26 18:46 49.00418 17.32262 26465 ft 411 kts 46°
2026-04-26 18:46 49.02175 17.35707 26972 ft 413 kts 46°
2026-04-26 18:47 49.03940 17.39161 27485 ft 414 kts 46°
2026-04-26 18:47 49.05708 17.42636 28008 ft 415 kts 46°
2026-04-26 18:47 49.07477 17.46110 28539 ft 416 kts 46°
2026-04-26 18:47 49.09249 17.49599 29109 ft 416 kts 46°
2026-04-26 18:48 49.11022 17.53095 29658 ft 414 kts 46°
2026-04-26 18:48 49.12743 17.56489 30205 ft 408 kts 46°
2026-04-26 18:48 49.14477 17.59908 30699 ft 406 kts 46°
2026-04-26 18:48 49.16202 17.63319 31185 ft 405 kts 46°
2026-04-26 18:49 49.17921 17.66726 31685 ft 404 kts 46°
2026-04-26 18:49 49.19632 17.70117 32192 ft 402 kts 46°
2026-04-26 18:49 49.21347 17.73523 32456 ft 407 kts 46°
2026-04-26 18:49 49.23076 17.76965 32714 ft 407 kts 46°
2026-04-26 18:50 49.24790 17.80379 32967 ft 403 kts 46°
2026-04-26 18:50 49.26488 17.83756 33188 ft 409 kts 46°
2026-04-26 18:50 49.30030 17.90837 33296 ft 429 kts 47°
2026-04-26 18:51 49.33736 17.98267 33305 ft 449 kts 47°
2026-04-26 18:51 49.37535 18.05900 33306 ft 461 kts 47°
2026-04-26 18:52 49.41468 18.13815 33294 ft 459 kts 47°
2026-04-26 18:52 49.45307 18.21569 33282 ft 458 kts 47°
2026-04-26 18:53 49.49149 18.29351 33262 ft 458 kts 47°
2026-04-26 18:53 49.53001 18.37179 33284 ft 459 kts 47°
2026-04-26 18:54 49.56844 18.45008 33279 ft 458 kts 47°
2026-04-26 18:54 49.60655 18.52802 33272 ft 458 kts 47°
2026-04-26 18:55 49.64487 18.60658 33282 ft 459 kts 48°
2026-04-26 18:55 49.68521 18.68160 33289 ft 450 kts 37°
2026-04-26 18:56 49.73476 18.73880 33289 ft 443 kts 27°
2026-04-26 18:56 49.78611 18.79121 33275 ft 442 kts 27°
2026-04-26 18:57 49.82876 18.83437 33284 ft 440 kts 26°
2026-04-26 18:57 49.88618 18.90074 33285 ft 445 kts 32°
2026-04-26 18:58 49.93724 18.95279 33277 ft 436 kts 22°
2026-04-26 18:58 49.98934 19.00212 33279 ft 439 kts 25°
2026-04-26 18:59 50.04082 19.05280 33274 ft 436 kts 25°
2026-04-26 18:59 50.09201 19.10337 33275 ft 436 kts 25°
2026-04-26 19:00 50.14291 19.15381 33276 ft 436 kts 25°
2026-04-26 19:00 50.19411 19.20463 33277 ft 436 kts 25°
2026-04-26 19:01 50.24521 19.25547 33270 ft 435 kts 25°
2026-04-26 19:01 50.29627 19.30642 33263 ft 435 kts 25°
2026-04-26 19:02 50.34728 19.35745 33272 ft 435 kts 25°
2026-04-26 19:02 50.38971 19.39996 33265 ft 435 kts 25°
2026-04-26 19:03 50.44894 19.45949 33278 ft 435 kts 24°
2026-04-26 19:03 50.49983 19.51076 33267 ft 435 kts 24°
2026-04-26 19:04 50.55075 19.56221 33265 ft 435 kts 24°
2026-04-26 19:04 50.57621 19.58802 32892 ft 436 kts 24°
2026-04-26 19:04 50.60169 19.61386 32364 ft 434 kts 24°
2026-04-26 19:05 50.65217 19.66513 31385 ft 432 kts 24°
2026-04-26 19:05 50.67714 19.69053 30905 ft 432 kts 24°
2026-04-26 19:05 50.70241 19.71628 30419 ft 433 kts 24°
2026-04-26 19:06 50.72769 19.74211 29884 ft 433 kts 24°
2026-04-26 19:06 50.75298 19.76792 29334 ft 434 kts 24°
2026-04-26 19:06 50.77833 19.79388 28789 ft 433 kts 24°
2026-04-26 19:06 50.80317 19.81940 28242 ft 419 kts 24°
2026-04-26 19:07 50.82722 19.84402 27724 ft 405 kts 24°
2026-04-26 19:07 50.85058 19.86800 27114 ft 397 kts 24°
2026-04-26 19:07 50.87359 19.89160 26465 ft 391 kts 24°
2026-04-26 19:07 50.89590 19.91459 25842 ft 383 kts 24°
2026-04-26 19:08 50.91806 19.93743 25223 ft 377 kts 24°
2026-04-26 19:08 50.93984 19.95988 24624 ft 370 kts 23°
2026-04-26 19:08 50.96124 19.98201 24032 ft 364 kts 23°
2026-04-26 19:08 50.98234 20.00379 23374 ft 360 kts 23°
2026-04-26 19:09 51.00320 20.02540 22688 ft 356 kts 23°
2026-04-26 19:09 51.02380 20.04673 22021 ft 352 kts 24°
2026-04-26 19:09 51.04415 20.06793 21414 ft 347 kts 23°
2026-04-26 19:09 51.06416 20.08866 20782 ft 341 kts 23°
2026-04-26 19:10 51.08387 20.10916 20149 ft 336 kts 23°
2026-04-26 19:10 51.10306 20.12911 19555 ft 331 kts 23°
2026-04-26 19:10 51.12222 20.14909 18956 ft 327 kts 24°
2026-04-26 19:10 51.14113 20.16878 18344 ft 323 kts 24°
2026-04-26 19:11 51.15983 20.18832 17673 ft 319 kts 24°
2026-04-26 19:11 51.17828 20.20757 17016 ft 316 kts 24°
2026-04-26 19:11 51.19658 20.22673 16374 ft 313 kts 24°
2026-04-26 19:11 51.21474 20.24572 15747 ft 311 kts 25°
2026-04-26 19:12 51.23260 20.26451 15420 ft 303 kts 25°
2026-04-26 19:12 51.25002 20.28275 15349 ft 305 kts 24°
2026-04-26 19:12 51.26787 20.30146 15304 ft 308 kts 24°
2026-04-26 19:12 51.28585 20.32035 14993 ft 306 kts 25°
2026-04-26 19:13 51.30323 20.33876 14671 ft 295 kts 24°
2026-04-26 19:13 51.32010 20.35644 14346 ft 286 kts 24°
2026-04-26 19:13 51.33655 20.37372 14017 ft 279 kts 24°
2026-04-26 19:13 51.35259 20.39063 13655 ft 274 kts 25°
2026-04-26 19:14 51.36843 20.40731 13281 ft 272 kts 25°
2026-04-26 19:14 51.38421 20.42397 12951 ft 272 kts 25°
2026-04-26 19:14 51.39999 20.44070 12612 ft 272 kts 25°
2026-04-26 19:14 51.41040 20.45175 12391 ft 271 kts 26°
2026-04-26 19:15 51.43152 20.47409 11832 ft 272 kts 26°
2026-04-26 19:15 51.44700 20.49050 11397 ft 270 kts 26°
2026-04-26 19:15 51.46257 20.50705 10946 ft 268 kts 27°
2026-04-26 19:15 51.47806 20.52347 10498 ft 266 kts 27°
2026-04-26 19:16 51.49343 20.53981 10042 ft 265 kts 27°
2026-04-26 19:16 51.50874 20.55610 9555 ft 263 kts 28°
2026-04-26 19:16 51.52400 20.57233 9065 ft 263 kts 28°
2026-04-26 19:16 51.53920 20.58854 8583 ft 262 kts 28°
2026-04-26 19:17 51.55439 20.60472 8103 ft 261 kts 28°
2026-04-26 19:17 51.56951 20.62087 7637 ft 261 kts 29°
2026-04-26 19:17 51.58459 20.63696 7200 ft 260 kts 29°
2026-04-26 19:17 51.59926 20.65267 7071 ft 255 kts 29°
2026-04-26 19:18 51.61409 20.66848 7027 ft 258 kts 29°
2026-04-26 19:18 51.62906 20.68455 7016 ft 259 kts 29°
2026-04-26 19:18 51.64410 20.70064 7008 ft 259 kts 29°
2026-04-26 19:18 51.65911 20.71674 7005 ft 259 kts 29°
2026-04-26 19:19 51.67409 20.73281 7009 ft 259 kts 29°
2026-04-26 19:19 51.68908 20.74893 7008 ft 259 kts 29°
2026-04-26 19:19 51.70406 20.76508 7005 ft 259 kts 29°
2026-04-26 19:19 51.71905 20.78121 7012 ft 259 kts 29°
2026-04-26 19:20 51.73392 20.79733 7003 ft 257 kts 29°
2026-04-26 19:20 51.74378 20.80805 6869 ft 259 kts 29°
2026-04-26 19:20 51.76375 20.82976 6361 ft 258 kts 30°
2026-04-26 19:20 51.77788 20.84510 5980 ft 255 kts 30°
2026-04-26 19:21 51.79253 20.86098 5582 ft 253 kts 30°
2026-04-26 19:21 51.80710 20.87677 5190 ft 251 kts 30°
2026-04-26 19:21 51.82156 20.89245 4792 ft 250 kts 30°
2026-04-26 19:21 51.83593 20.90798 4385 ft 244 kts 30°
2026-04-26 19:22 51.84939 20.92263 3954 ft 225 kts 30°
2026-04-26 19:22 51.86213 20.93639 3535 ft 214 kts 28°
2026-04-26 19:22 51.87408 20.94967 3145 ft 204 kts 29°
2026-04-26 19:22 51.88574 20.96271 3033 ft 206 kts 29°
2026-04-26 19:23 51.89745 20.97585 3020 ft 210 kts 29°
2026-04-26 19:23 51.90900 20.98888 2989 ft 192 kts 29°
2026-04-26 19:23 51.91965 21.00104 2972 ft 186 kts 29°
2026-04-26 19:23 51.93027 21.01326 2985 ft 188 kts 29°
2026-04-26 19:24 51.94096 21.02553 2999 ft 189 kts 29°
2026-04-26 19:24 51.95164 21.03784 3009 ft 188 kts 29°
2026-04-26 19:24 51.97233 21.06186 3024 ft 175 kts 30°
2026-04-26 19:25 51.98224 21.07364 3023 ft 178 kts 29°
2026-04-26 19:25 51.98923 21.08035 2992 ft 175 kts 21°
2026-04-26 19:25 52.00413 21.09021 2990 ft 173 kts 17°
2026-04-26 19:25 52.01560 21.09468 2969 ft 169 kts 352°
2026-04-26 19:26 52.02580 21.08827 2984 ft 153 kts 334°
2026-04-26 19:26 52.03492 21.08086 2976 ft 141 kts 336°
2026-04-26 19:26 52.04379 21.07365 2772 ft 143 kts 334°
2026-04-26 19:26 52.05222 21.06619 2592 ft 132 kts 334°
2026-04-26 19:27 52.05993 21.05953 2464 ft 121 kts 335°
2026-04-26 19:27 52.06720 21.05321 2295 ft 118 kts 335°
2026-04-26 19:27 52.07479 21.04657 2156 ft 127 kts 335°
2026-04-26 19:27 52.08257 21.03980 2004 ft 127 kts 335°
2026-04-26 19:28 52.09033 21.03303 1839 ft 127 kts 335°
2026-04-26 19:28 52.09812 21.02623 1675 ft 128 kts 335°
2026-04-26 19:28 52.10577 21.01955 1570 ft 119 kts 335°
2026-04-26 19:28 52.11305 21.01301 1489 ft 124 kts 334°
2026-04-26 19:29 52.12077 21.00602 1219 ft 125 kts 335°
2026-04-26 19:29 52.12844 20.99949 988 ft 126 kts 335°
2026-04-26 19:29 52.13624 20.99275 810 ft 129 kts 334°
2026-04-26 19:29 52.14411 20.98594 617 ft 127 kts 333°
2026-04-26 19:30 52.15193 20.97914 424 ft 128 kts 332°
2026-04-26 19:30 52.15957 20.97243 336 ft 115 kts 331°
2026-04-26 19:30 52.16509 20.96769 338 ft 74 kts 332°
2026-04-26 19:30 52.16721 20.96586 339 ft 34 kts 333°
2026-04-26 19:31 52.16914 20.96513 333 ft 11 kts 358°
2026-04-26 19:31 52.17001 20.96513 332 ft 13 kts
2026-04-26 19:31 52.17012 20.96514 332 ft 1 kts
2026-04-26 19:31 52.17015 20.96514 333 ft 0 kts
2026-04-26 19:32 52.17017 20.96514 333 ft 0 kts
2026-04-26 19:32 52.17027 20.96515 335 ft 3 kts
2026-04-26 19:32 52.17059 20.96525 337 ft 6 kts 17°
2026-04-26 19:33 52.17082 20.96554 335 ft 1 kts 54°
2026-04-26 19:33 52.17090 20.96577 337 ft 4 kts 62°
2026-04-26 19:33 52.17095 20.96591 336 ft 3 kts 61°
2026-04-26 19:33 52.17111 20.96637 334 ft 6 kts 59°
2026-04-26 19:34 52.17140 20.96717 337 ft 10 kts 61°
2026-04-26 19:34 52.17172 20.96807 336 ft 9 kts 47°
2026-04-26 19:34 52.17197 20.96905 334 ft 10 kts 81°
2026-04-26 19:34 52.17210 20.96957 336 ft 0 kts 62°